Location: Campbell River
(50.0170°N, 125.2500°W)
Time: 07:04:53
(UTC-08:00)

Daily predictions for brighter satellites

Satellite Brightness Start Highest point End
(mag) Time Altitude Azimuth Time Altitude Azimuth Time Altitude Azimuth
IRAS Rocket 4.3 16:51:55 10° SSE 16:57:22 62° ENE 17:02:49 10° NNW
CSL-04 Rocket 3.8 16:53:08 10° SE 16:58:14 51° ENE 17:03:26 10° N
Cosmos 2242 Rocket 4.0 16:55:40 10° SSE 17:00:01 46° E 17:04:20 10° NNE
SL-23 DEB 3.9 16:57:26 10° W 17:00:46 71° N 17:05:43 10° E
Cosmos 841 Rocket 3.7 16:57:12 10° NNW 17:02:23 52° ENE 17:07:31 10° SE
Ariane Rocket 3.2 16:58:49 10° SE 17:03:42 49° ENE 17:08:36 10° N
ERS-2 3.6 17:02:20 10° ESE 17:04:47 17° ENE 17:07:15 10° NNE
Cosmos 2100 Rocket 4.4 16:59:31 10° SSW 17:05:45 73° W 17:12:07 10° N
Cosmos 1850 Rocket 4.2 17:01:19 10° SSW 17:06:30 76° WNW 17:11:43 10° NNE
AQUARIUS 4.5 17:06:17 10° SE 17:10:33 45° ENE 17:14:52 10° N
Cosmos 1782 4.5 17:09:21 10° ESE 17:11:47 16° E 17:14:12 10° NE
ALOS 3.6 17:11:17 10° E 17:14:26 18° ENE 17:17:35 10° NNE
SJ-12 4.0 17:13:09 10° SSE 17:17:18 89° WSW 17:21:30 10° NNW
Cosmos 1633 3.6 17:14:25 10° NNE 17:17:29 24° ENE 17:20:34 10° SE
SMAP 3.1 17:16:47 10° SSE 17:21:21 59° ENE 17:25:57 10° N
BREEZE-M DEB (TANK) 1.7 17:19:23 10° W 17:21:24 68° S 17:23:50 10° ESE
NOSS 3-2 (C) 4.2 17:17:13 10° WSW 17:23:15 53° NW 17:30:03 10° NE
Cosmos 1802 Rocket 4.4 17:17:10 10° SSW 17:23:17 69° WNW 17:29:26 10° N
Cosmos 1782 Rocket 4.3 17:19:43 10° N 17:23:34 30° ENE 17:27:24 10° SE
SL-16 R/B 4.5 17:20:22 10° N 17:25:15 24° NW 17:30:05 10° WSW
Cosmos 1844 Rocket 2.8 17:19:48 10° SSW 17:25:27 80° WNW 17:31:07 10° NNE
Cosmos 1346 4.3 17:27:26 10° SW 17:29:29 30° WNW 17:31:33 10° N
BREEZE-M DEB (TANK) 3.3 17:27:45 10° SW 17:29:53 37° SSE 17:32:12 14° E
COSMO-SKYMED 1 4.0 17:27:46 10° NE 17:30:49 19° E 17:33:54 10° SE
NOSS 3-2 (A) 4.4 17:25:30 10° W 17:31:26 43° NNW 17:38:04 10° NE
IDEFIX/ARIANE 42P 4.2 17:28:08 10° SSW 17:33:00 39° W 17:37:53 10° NNW
USA 161 2.1 17:31:25 10° N 17:33:13 35° WNW 17:35:09 10° SW
CZ-4C R/B 3.1 17:27:29 10° NW 17:34:01 49° NE 17:41:26 10° ESE
YAOGAN 1 2.9 17:31:06 10° SE 17:35:12 44° ENE 17:39:20 10° N
Cosmos 1725 Rocket 4.2 17:35:12 10° SSW 17:41:29 81° W 17:47:47 10° N
CENTAUR R/B 2.8 17:35:49 10° SW 17:42:04 78° NW 17:49:07 11° NE
FENGYUN 3A 4.3 17:37:24 10° SE 17:42:11 33° ENE 17:46:58 10° N
CSL-04 Debris 4.4 17:41:40 10° SSE 17:47:06 77° WSW 17:52:32 10° NNW
SPOT 3 Rocket 4.0 17:42:31 10° SE 17:47:21 40° ENE 17:52:12 10° N
Cosmos 1833 Rocket 2.6 17:44:52 10° NNW 17:50:31 74° ENE 17:56:09 10° SE
Cosmos 1703 Rocket 3.7 17:52:00 10° S 17:56:20 52° E 18:00:40 10° NNE
Cosmos 2221 Rocket 4.2 17:52:24 10° SSE 17:56:22 34° E 17:59:46 13° NNE
Meteor 1-28 Rocket 3.1 17:57:38 10° NNE 18:01:22 68° E 18:05:03 10° S
Cosmos 1844 4.3 17:56:00 10° SW 18:01:43 59° NW 18:07:29 10° NNE
Cosmos 2297 4.2 17:57:10 10° S 18:02:23 38° ESE 18:05:45 20° NE
Cosmos 2263 Rocket 4.3 17:59:51 10° WNW 18:03:37 18° NW 18:07:22 10° N
Cosmos 2278 Rocket 2.2 17:59:53 10° SSW 18:05:34 84° ESE 18:10:48 12° NNE
Okean 2 Rocket 3.2 18:04:30 10° N 18:08:59 54° ENE 18:13:24 10° SSE
Cosmos 2034 Rocket 4.4 18:03:13 10° SSE 18:09:02 39° E 18:14:51 10° NNE
CZ-2C R/B 3.6 18:04:50 10° NNE 18:09:19 72° ESE 18:13:51 10° S
Timation 2 Rocket 4.3 18:02:53 10° NNW 18:09:36 53° NE 18:16:02 10° SE
Cosmos 405 3.3 18:06:35 10° N 18:10:03 41° ENE 18:13:28 10° SE
Cosmos 44 Rocket 3.2 18:05:31 10° NW 18:10:24 84° NE 18:15:22 10° SE
Cosmos 1606 2.5 18:08:57 10° S 18:12:41 66° E 18:15:33 17° NNE
Landsat 4 3.6 18:10:56 18° NNE 18:13:42 64° ESE 18:17:29 10° S
NOAA 12 4.1 18:08:47 10° SE 18:13:58 57° ENE 18:19:11 10° N
MTI 3.9 18:13:27 42° ENE 18:14:09 52° E 18:17:18 10° S
Meteor 1-11 Rocket 3.9 18:09:03 10° N 18:14:48 51° ENE 18:20:23 10° SSE
SL-27 R/B 4.0 18:13:08 10° NW 18:16:15 36° WSW 18:19:21 10° S
Cosmos 1908 Rocket 4.4 18:12:37 10° NNW 18:16:51 52° W 18:21:03 10° S
Cosmos 292 Rocket 3.6 18:12:23 10° NNW 18:17:10 74° ENE 18:21:54 10° SSE
SKYMED 2 3.7 18:16:22 20° NNE 18:19:13 52° E 18:23:27 10° S
EO 1 Del DPAF 3.4 18:18:45 37° NE 18:19:46 47° E 18:23:28 10° S
MONITOR-E 4.0 18:19:44 10° SSE 18:22:47 85° E 18:25:51 10° NNW
COSMOS 2487 3.0 18:19:35 10° N 18:22:20 38° NNE 18:22:20 38° NNE
CZ-4 R/B 2.5 18:19:35 10° S 18:23:16 42° W 18:26:58 10° NNW
Intercosmos 25 4.1 18:17:06 10° S 18:24:25 81° E 18:28:53 10° NNE
Lacrosse 5 2.7 18:20:10 10° WNW 18:24:54 38° N 18:26:50 28° NE
Cosmos 540 Rocket 4.0 18:25:47 10° NNW 18:30:54 60° WSW 18:35:57 10° S
ATLAS 3B R/B 4.1 18:25:30 10° WNW 18:31:19 26° N 18:34:49 18° NNE
Cosmos 44 3.7 18:29:13 10° NW 18:33:47 60° SW 18:38:36 10° SSE
COSMOS 2455 3.6 18:30:16 10° WSW 18:36:06 51° NW 18:40:35 17° NNE
Cosmos 1602 3.6 18:32:22 10° N 18:36:14 88° E 18:40:04 10° S
Cosmos 1464 Rocket 3.8 18:30:09 10° S 18:36:15 78° E 18:42:27 10° NNE
ERS-2 3.1 18:34:33 10° S 18:38:08 49° W 18:41:44 10° NNW
SOZ 4.2 18:35:06 10° WSW 18:39:16 82° WNW 18:39:16 82° WNW
Cosmos 968 Rocket 4.2 18:35:52 10° SSE 18:39:43 34° SE 18:39:43 34° SE
Cosmos 2082 Rocket 3.0 18:35:30 10° NW 18:41:01 52° WSW 18:46:29 10° S
Cosmos 1503 Rocket 3.9 18:36:27 10° SSW 18:41:43 82° ESE 18:44:29 29° NNE
Okean 1-7 3.2 18:39:54 10° SSW 18:44:17 75° W 18:47:58 15° N
USA 234 3.7 18:46:02 36° ESE 18:47:30 40° SE 18:53:34 10° SSW
Cosmos 1782 3.5 18:43:45 10° SSW 18:47:42 53° WNW 18:50:51 15° N
Cosmos 405 Rocket 2.9 18:44:02 10° S 18:47:03 54° S 18:47:03 54° S
Meteor 2-6 Rocket 4.1 18:44:02 10° SSW 18:49:30 87° W 18:55:11 10° NNE
ALOS 2.4 18:46:42 10° S 18:51:22 72° WSW 18:56:04 10° NNW
DMSP B5D1-3 4.4 18:49:39 38° NE 18:51:35 66° ESE 18:56:42 10° S
Meteor 2-20 Rocket 4.3 18:45:37 10° N 18:51:46 76° E 18:57:49 10° SSE
COSMO-SKYMED 1 3.2 19:05:00 25° N 19:07:18 54° WNW 19:11:32 10° SSW
FengYun 1-2 T 4.1 19:04:19 12° SSE 19:09:30 87° ENE 19:15:08 10° NNW
Meteor 1-5 Rocket 4.0 19:12:01 10° NNW 19:17:25 84° WSW 19:19:04 45° S
Meteor 1-27 Rocket 3.9 19:16:41 10° SSW 19:22:37 76° WNW 19:26:57 20° N
CZ-4C R/B 3.3 19:16:01 10° NW 19:22:56 61° SW 19:28:42 19° SSE
CENTAUR R/B 3.9 19:27:53 10° W 19:33:53 34° NNW 19:36:17 28° NNE
Cosmos 1538 Rocket 4.3 19:31:15 10° NNW 19:35:59 65° WNW 19:35:59 65° WNW
Cosmos 2278 Rocket 4.1 19:45:49 10° W 19:50:22 24° NW 19:52:40 19° N
Lacrosse 5 3.8 20:03:47 10° WNW 20:06:02 25° NW 20:06:02 25° NW
ATLAS 3B R/B 4.2 20:18:05 10° NW 20:22:04 26° N 20:22:04 26° N
USA 234 4.2 20:33:24 42° WSW 20:33:24 42° WSW 20:37:27 10° WSW
